When you browse on this site, cookies collect data to enhance your experience and personalize the content and advertising you see.
Visit our Privacy Policy to learn more. By continuing to use the site, you agree to this use of cookies and data.
  • In Lithuania
  • List of Countries
  • For 7 days
  • Water Temperature
  • Weather Map
  • Weather Widgets
  • user-avatar
    Login

    Hourly Weather Harare

    Today, 14 November, Thursday

    Time Temperature Precipitation Wind Pressure Humidity
    00:00 +20°C° 0 mm 2 mps 637 mmHg 79%
    01:00 +21°C° 0 mm 1 mps 637 mmHg 80%
    02:00 +20°C° 0 mm 1 mps 637 mmHg 82%
    03:00 +20°C° 0 mm 1 mps 637 mmHg 81%
    04:00 +20°C° 0 mm 1 mps 637 mmHg 81%
    05:00 +19°C° 0 mm 2 mps 637 mmHg 81%
    06:00 +21°C° 0 mm 2 mps 638 mmHg 73%
    07:00 +24°C° 0 mm 3 mps 639 mmHg 66%
    08:00 +25°C° 0 mm 4 mps 639 mmHg 58%
    09:00 +27°C° 0 mm 4 mps 639 mmHg 52%
    10:00 +29°C° 0 mm 4 mps 640 mmHg 45%
    11:00 +32°C° 0 mm 4 mps 640 mmHg 39%
    12:00 +30°C° 0 mm 4 mps 639 mmHg 40%
    13:00 +30°C° 0 mm 3 mps 638 mmHg 42%
    14:00 +29°C° 0 mm 3 mps 637 mmHg 43%
    15:00 +27°C° 3.8 mm 3 mps 636 mmHg 54%
    16:00 +25°C° 3.8 mm 3 mps 636 mmHg 66%
    17:00 +22°C° 3.8 mm 3 mps 635 mmHg 78%
    18:00 +21°C° 5.2 mm 3 mps 635 mmHg 81%
    19:00 +21°C° 5.2 mm 3 mps 636 mmHg 84%
    20:00 +20°C° 5.2 mm 3 mps 636 mmHg 87%
    21:00 +20°C° 0.5 mm 2 mps 636 mmHg 85%
    22:00 +20°C° 0.5 mm 2 mps 636 mmHg 84%
    23:00 +21°C° 0.5 mm 1 mps 636 mmHg 83%

    Tomorrow, 15 November, Friday

    Time Temperature Precipitation Wind Pressure Humidity
    00:00 +21°C° 0 mm 1 mps 636 mmHg 82%
    01:00 +19°C° 0 mm 0 mps 636 mmHg 81%
    02:00 +19°C° 0 mm 0 mps 635 mmHg 80%
    03:00 +19°C° 0 mm 0 mps 635 mmHg 79%
    04:00 +21°C° 0 mm 1 mps 635 mmHg 78%
    05:00 +21°C° 0 mm 1 mps 635 mmHg 78%
    06:00 +21°C° 0.1 mm 2 mps 636 mmHg 75%
    07:00 +23°C° 0.1 mm 2 mps 637 mmHg 73%
    08:00 +24°C° 0.1 mm 2 mps 637 mmHg 70%
    09:00 +26°C° 1 mm 3 mps 637 mmHg 62%
    10:00 +28°C° 1 mm 3 mps 637 mmHg 55%
    11:00 +29°C° 1 mm 3 mps 637 mmHg 47%
    12:00 +29°C° 0.3 mm 3 mps 637 mmHg 47%
    13:00 +29°C° 0.3 mm 4 mps 636 mmHg 48%
    14:00 +29°C° 0.3 mm 4 mps 635 mmHg 49%
    15:00 +28°C° 0.3 mm 3 mps 635 mmHg 54%
    16:00 +26°C° 0.3 mm 3 mps 634 mmHg 59%
    17:00 +25°C° 0.3 mm 2 mps 634 mmHg 64%
    18:00 +24°C° 0.3 mm 2 mps 634 mmHg 68%
    19:00 +23°C° 0.3 mm 2 mps 634 mmHg 72%
    20:00 +21°C° 0.3 mm 3 mps 635 mmHg 77%
    21:00 +21°C° 0 mm 2 mps 634 mmHg 76%
    22:00 +22°C° 0 mm 1 mps 634 mmHg 75%
    23:00 +21°C° 0 mm 1 mps 634 mmHg 74%

    Day after tomorrow, 16 November, Saturday

    Time Temperature Precipitation Wind Pressure Humidity
    00:00 +21°C° 0 mm 1 mps 634 mmHg 74%
    01:00 +19°C° 0 mm 0 mps 633 mmHg 74%
    02:00 +19°C° 0 mm 0 mps 633 mmHg 73%
    03:00 +19°C° 0 mm 0 mps 633 mmHg 73%
    04:00 +19°C° 0 mm 0 mps 633 mmHg 73%
    05:00 +19°C° 0 mm 0 mps 634 mmHg 73%
    06:00 +22°C° 0 mm 1 mps 635 mmHg 69%
    07:00 +24°C° 0 mm 2 mps 636 mmHg 65%
    08:00 +25°C° 0 mm 2 mps 637 mmHg 61%
    09:00 +27°C° 0.2 mm 2 mps 637 mmHg 54%
    10:00 +29°C° 0.2 mm 2 mps 637 mmHg 47%
    11:00 +31°C° 0.2 mm 2 mps 637 mmHg 41%
    12:00 +30°C° 0.2 mm 2 mps 636 mmHg 43%
    13:00 +30°C° 0.2 mm 2 mps 635 mmHg 45%
    14:00 +29°C° 0.2 mm 2 mps 634 mmHg 47%
    15:00 +28°C° 0.2 mm 2 mps 634 mmHg 53%
    16:00 +26°C° 0.2 mm 3 mps 634 mmHg 60%
    17:00 +25°C° 0.2 mm 3 mps 633 mmHg 66%
    18:00 +24°C° 0 mm 3 mps 634 mmHg 69%
    19:00 +22°C° 0 mm 3 mps 634 mmHg 71%
    20:00 +21°C° 0 mm 4 mps 634 mmHg 74%
    21:00 +21°C° 0 mm 3 mps 634 mmHg 76%
    22:00 +21°C° 0 mm 2 mps 635 mmHg 78%
    23:00 +22°C° 0 mm 1 mps 635 mmHg 80%

    17 November, Sunday

    Time Temperature Precipitation Wind Pressure Humidity
    00:00 +22°C° 0.3 mm 1 mps 635 mmHg 79%
    01:00 +22°C° 0.3 mm 1 mps 635 mmHg 78%
    02:00 +22°C° 0.3 mm 1 mps 635 mmHg 77%
    03:00 +22°C° 0.4 mm 1 mps 635 mmHg 78%
    04:00 +21°C° 0.4 mm 1 mps 635 mmHg 79%
    05:00 +21°C° 0.4 mm 1 mps 635 mmHg 80%
    06:00 +23°C° 0.4 mm 2 mps 636 mmHg 73%
    07:00 +24°C° 0.4 mm 2 mps 636 mmHg 66%
    08:00 +26°C° 0.4 mm 3 mps 637 mmHg 59%
    09:00 +28°C° 0.1 mm 3 mps 637 mmHg 53%
    10:00 +29°C° 0.1 mm 3 mps 637 mmHg 47%
    11:00 +31°C° 0.1 mm 3 mps 637 mmHg 41%
    12:00 +30°C° 0.3 mm 3 mps 636 mmHg 45%
    13:00 +29°C° 0.3 mm 2 mps 635 mmHg 48%
    14:00 +27°C° 0.3 mm 2 mps 634 mmHg 52%
    15:00 +26°C° 2 mm 3 mps 634 mmHg 57%
    16:00 +25°C° 2 mm 3 mps 634 mmHg 62%
    17:00 +23°C° 2 mm 4 mps 633 mmHg 68%
    18:00 +22°C° 0 mm 3 mps 634 mmHg 69%
    19:00 +23°C° 0 mm 2 mps 634 mmHg 70%
    20:00 +22°C° 0 mm 1 mps 634 mmHg 72%
    21:00 +22°C° 0 mm 1 mps 634 mmHg 70%
    22:00 +22°C° 0 mm 1 mps 635 mmHg 67%
    23:00 +22°C° 0 mm 1 mps 635 mmHg 65%

    18 November, Monday

    Time Temperature Precipitation Wind Pressure Humidity
    00:00 +22°C° 0.1 mm 1 mps 635 mmHg 67%
    01:00 +20°C° 0.1 mm 2 mps 635 mmHg 68%
    02:00 +20°C° 0.1 mm 2 mps 635 mmHg 69%
    03:00 +20°C° 0 mm 2 mps 635 mmHg 72%
    04:00 +19°C° 0 mm 2 mps 635 mmHg 74%
    05:00 +19°C° 0 mm 2 mps 635 mmHg 77%
    06:00 +21°C° 0 mm 3 mps 636 mmHg 72%
    07:00 +24°C° 0 mm 3 mps 637 mmHg 67%
    08:00 +26°C° 0 mm 3 mps 637 mmHg 62%
    09:00 +28°C° 0.2 mm 3 mps 638 mmHg 54%
    10:00 +29°C° 0.2 mm 3 mps 638 mmHg 45%
    11:00 +31°C° 0.2 mm 3 mps 639 mmHg 37%
    12:00 +31°C° 0 mm 3 mps 638 mmHg 35%
    13:00 +32°C° 0 mm 2 mps 637 mmHg 32%
    14:00 +32°C° 0 mm 2 mps 637 mmHg 30%
    15:00 +30°C° 0 mm 3 mps 636 mmHg 39%
    16:00 +28°C° 0 mm 3 mps 636 mmHg 48%
    17:00 +26°C° 0 mm 4 mps 635 mmHg 57%
    18:00 +25°C° 0.3 mm 3 mps 636 mmHg 61%
    19:00 +24°C° 0.3 mm 2 mps 636 mmHg 64%
    20:00 +23°C° 0.3 mm 2 mps 637 mmHg 68%
    21:00 +22°C° 0.1 mm 3 mps 637 mmHg 69%
    22:00 +21°C° 0.1 mm 4 mps 637 mmHg 71%
    23:00 +21°C° 0.1 mm 5 mps 638 mmHg 73%

    19 November, Tuesday

    Time Temperature Precipitation Wind Pressure Humidity
    00:00 +20°C° 0.2 mm 4 mps 637 mmHg 76%
    01:00 +20°C° 0.2 mm 4 mps 637 mmHg 80%
    02:00 +19°C° 0.2 mm 3 mps 636 mmHg 83%
    03:00 +19°C° 0 mm 3 mps 636 mmHg 84%
    04:00 +18°C° 0 mm 3 mps 636 mmHg 85%
    05:00 +18°C° 0 mm 3 mps 636 mmHg 85%
    06:00 +19°C° 0 mm 3 mps 637 mmHg 80%
    07:00 +21°C° 0 mm 3 mps 638 mmHg 75%
    08:00 +22°C° 0 mm 3 mps 638 mmHg 69%
    09:00 +25°C° 0 mm 4 mps 639 mmHg 61%
    10:00 +27°C° 0 mm 4 mps 639 mmHg 52%
    11:00 +29°C° 0 mm 5 mps 639 mmHg 44%
    12:00 +29°C° 0.1 mm 5 mps 639 mmHg 45%
    13:00 +29°C° 0.1 mm 5 mps 638 mmHg 46%
    14:00 +28°C° 0.1 mm 5 mps 637 mmHg 47%
    15:00 +28°C° 0.6 mm 4 mps 637 mmHg 50%
    16:00 +27°C° 0.6 mm 4 mps 637 mmHg 53%
    17:00 +27°C° 0.6 mm 3 mps 636 mmHg 56%
    18:00 +26°C° 0.2 mm 3 mps 636 mmHg 61%
    19:00 +24°C° 0.2 mm 3 mps 636 mmHg 67%
    20:00 +23°C° 0.2 mm 2 mps 636 mmHg 72%
    21:00 +23°C° 0.1 mm 2 mps 636 mmHg 73%
    22:00 +21°C° 0.1 mm 2 mps 636 mmHg 74%
    23:00 +22°C° 0.1 mm 1 mps 637 mmHg 76%
    Show more